KB8DIV Weather Reports


time (UTC)temp
C
wind
direction
speed
KPH
gust
KPH
rain 1hr
cm
rain 24hr
cm
rain mn
cm
humidity
%
barometer
mb
20260906092906 17 57 11.3 17.7 0.00 1.98 0.00 92 1016.3
20260906092406 17 61 11.3 17.7 0.00 1.98 0.00 92 1016.2
20260906091906 17 56 11.3 17.7 0.00 1.98 0.00 92 1016.2
20260906091406 17 63 11.3 16.1 0.00 2.01 0.00 92 1016.2
20260906090906 17 57 11.3 16.1 0.00 2.11 0.00 92 1016.1
20260906090406 17 57 9.7 16.1 0.00 2.16 0.00 92 1016.0
20260906085907 17 61 9.7 16.1 0.00 2.18 0.00 92 1016.0
20260906085401 17 58 11.3 16.1 0.00 2.18 0.00 92 1015.9
20260906084856 17 41 9.7 14.5 0.00 2.18 0.00 92 1015.8
20260906084349 17 44 9.7 14.5 0.00 2.18 0.00 92 1015.8
20260906083843 17 55 9.7 14.5 0.00 2.18 0.00 91 1015.8
20260906083337 17 58 11.3 17.7 0.00 2.18 0.00 90 1015.7
20260906082831 18 60 12.9 17.7 0.00 2.18 0.00 89 1015.7
20260906082325 18 68 11.3 17.7 0.00 2.18 0.00 89 1015.7
20260906081819 18 40 11.3 16.1 0.00 2.18 0.00 89 1015.8
20260906081319 18 55 11.3 16.1 0.00 2.18 0.00 89 1015.8
20260906080819 18 61 9.7 16.1 0.00 2.18 0.00 89 1015.9
20260906080318 18 40 11.3 16.1 0.00 2.18 0.00 89 1015.9
20260906080043 18 58 9.7 16.1 0.00 2.18 0.00 90 1016.0
20260906075541 18 46 9.7 14.5 0.00 2.18 0.00 90 1016.0
20260906075043 18 59 9.7 14.5 0.00 2.18 0.00 89 1016.0
20260906074319 18 59 8.0 14.5 0.00 2.18 0.00 90 1016.0
20260906073819 18 50 9.7 14.5 0.00 2.18 0.00 90 1016.0
20260906073319 18 72 9.7 14.5 0.00 2.18 0.00 90 1015.9
20260906072818 18 56 9.7 12.9 0.00 2.18 0.00 91 1015.9
20260906072318 18 49 8.0 12.9 0.00 2.18 0.00 91 1015.9
20260906071818 18 63 8.0 12.9 0.00 2.18 0.00 91 1015.9
20260906071538 18 53 8.0 11.3 0.00 2.18 0.00 92 1015.9
20260906070818 18 64 6.4 11.3 0.00 2.18 0.00 93 1015.9
20260906070318 17 40 6.4 11.3 0.00 2.18 0.00 93 1015.9
20260906065819 17 52 4.8 8.0 0.00 2.18 0.00 94 1016.0
20260906065313 17 44 3.2 8.0 0.00 2.18 0.00 93 1016.0
20260906064807 17 54 4.8 8.0 0.00 2.18 0.00 93 1015.9
20260906064301 17 41 4.8 8.0 0.00 2.18 0.00 93 1015.8
20260906063755 17 36 6.4 9.7 0.00 2.18 0.00 93 1015.8
20260906063249 17 44 4.8 9.7 0.00 2.18 0.00 93 1015.8
20260906062743 17 46 3.2 6.4 0.00 2.18 0.00 93 1015.9
20260906062237 17 50 1.6 6.4 0.00 2.18 0.00 93 1015.9
20260906061731 17 44 1.6 4.8 0.00 2.18 0.00 93 1016.0
20260906061231 17 50 1.6 6.4 0.00 2.18 0.00 93 1015.9
20260906060952 17 51 3.2 6.4 0.00 2.18 0.00 93 1015.9
20260906060454 17 51 3.2 6.4 0.00 2.18 0.00 93 1015.9
20260906055728 17 46 4.8 6.4 0.00 2.18 0.00 93 1015.9
20260906055228 17 43 4.8 6.4 0.00 2.18 0.00 93 1015.9
20260906054729 17 39 4.8 8.0 0.00 2.18 0.00 93 1015.8
20260906054225 17 38 6.4 9.7 0.00 2.18 0.00 93 1015.7
20260906053725 17 52 6.4 9.7 0.00 2.18 0.00 93 1015.6
20260906053225 18 39 6.4 9.7 0.00 2.18 0.00 93 1015.6
20260906052723 18 41 6.4 9.7 0.00 2.18 0.00 93 1015.5
20260906052225 18 32 6.4 9.7 0.00 2.18 0.00 94 1015.5
20260906051722 18 30 4.8 8.0 0.00 2.18 0.00 94 1015.5
20260906051452 18 27 3.2 6.4 0.00 2.18 0.00 93 1015.4
20260906050723 18 24 3.2 6.4 0.00 2.18 0.00 93 1015.4
20260906050223 18 17 3.2 6.4 0.00 2.18 0.00 93 1015.4
20260906045945 18 30 3.2 6.4 0.00 2.18 0.00 94 1015.4
20260906045221 18 37 3.2 4.8 0.00 2.18 0.00 94 1015.4
20260906044721 18 40 3.2 4.8 0.00 2.18 0.00 94 1015.3
20260906044219 18 49 1.6 3.2 0.00 2.18 0.00 94 1015.2
20260906043719 18 53 0.0 3.2 0.00 2.18 0.00 93 1015.0
20260906043221 18 55 0.0 1.6 0.00 2.18 0.00 93 1015.0
20260906042719 18 52 0.0 3.2 0.00 2.18 0.00 93 1015.1
20260906042656 18 52 1.6 4.8 0.00 2.18 0.00 93 1015.0
20260906041941 18 52 3.2 6.4 0.00 2.18 0.00 93 1015.0
20260906041659 19 48 3.2 6.4 0.00 2.18 0.00 93 1015.0
20260906040715 19 49 4.8 8.0 0.00 2.18 0.00 93 1015.1
20260906040214 19 51 4.8 8.0 0.00 2.18 0.00 93 1015.0
20260906035714 19 58 3.2 6.4 0.00 2.18 2.18 93 1015.0
20260906035213 19 60 3.2 6.4 0.00 2.18 2.18 93 1015.1
20260906034716 20 66 4.8 9.7 0.00 2.18 2.18 93 1015.1
20260906034215 20 66 6.4 11.3 0.00 2.18 2.18 92 1014.9
20260906033712 20 64 8.0 11.3 0.00 2.18 2.18 92 1014.9
20260906033212 20 66 9.7 12.9 0.00 2.18 2.18 91 1015.0
20260906032713 20 72 11.3 19.3 0.00 2.18 2.18 91 1015.1
20260906032213 20 72 12.9 19.3 0.00 2.18 2.18 90 1015.1
20260906031711 21 64 11.3 16.1 0.00 2.18 2.18 91 1015.1
20260906031213 21 65 9.7 16.1 0.00 2.18 2.18 92 1015.1
20260906030712 21 63 9.7 14.5 0.00 2.18 2.18 93 1015.1
20260906030213 21 55 9.7 14.5 0.00 2.18 2.18 95 1015.0
20260906025936 21 67 9.7 14.5 0.00 2.18 2.18 95 1015.1
20260906025212 21 64 9.7 12.9 0.00 2.18 2.18 95 1015.1
20260906024713 21 67 9.7 16.1 0.00 2.18 2.18 96 1015.1
20260906024211 21 64 9.7 16.1 0.00 2.18 2.18 96 1015.1
20260906023929 21 66 8.0 12.9 0.00 2.18 2.18 96 1015.0
20260906023431 21 65 6.4 11.3 0.00 2.18 2.18 96 1015.1
20260906022711 22 63 6.4 11.3 0.00 2.18 2.18 96 1015.1
20260906022208 22 70 9.7 16.1 0.00 2.18 2.18 96 1015.1
20260906021709 22 70 9.7 16.1 0.00 2.18 2.18 95 1015.0
20260906021207 22 79 12.9 19.3 0.00 2.18 2.18 95 1014.9
20260906020709 22 74 16.1 24.1 0.00 2.18 2.18 94 1014.9
20260906020208 22 63 17.7 27.4 0.00 2.18 2.18 94 1014.8
20260906015707 22 71 17.7 27.4 0.00 2.18 2.18 94 1014.7
20260906015209 22 75 17.7 25.7 0.00 2.18 2.18 94 1014.7
20260906014709 22 70 16.1 25.7 0.00 2.18 2.18 94 1014.7
20260906014209 22 63 12.9 22.5 0.00 2.18 2.18 95 1014.7
20260906013709 23 68 12.9 22.5 0.00 2.18 2.18 95 1014.7
20260906013208 23 63 11.3 19.3 0.00 2.18 2.18 95 1014.5
20260906012707 23 56 9.7 14.5 0.00 2.18 2.18 96 1014.6
20260906012207 23 53 9.7 16.1 0.00 2.18 2.18 96 1014.5
20260906011708 23 60 9.7 16.1 0.00 2.18 2.18 96 1014.4
20260906011428 22 60 8.0 11.3 0.00 2.18 2.18 96 1014.4
20260906010708 22 51 8.0 11.3 0.00 2.18 2.18 96 1014.4
20260906010208 22 56 6.4 11.3 0.00 2.18 2.18 96 1014.1
20260906010145 22 56 4.8 9.7 0.00 2.18 2.18 96 1013.9
20260906005432 22 64 4.8 9.7 0.00 2.18 2.18 96 1014.0
20260906004930 22 55 4.8 9.7 0.00 2.18 2.18 95 1013.9
20260906004209 22 62 6.4 11.3 0.00 2.18 2.18 95 1013.7
20260906003924 22 53 8.0 11.3 0.00 2.18 2.18 95 1013.7
20260906003427 23 56 6.4 12.9 0.00 2.18 2.18 95 1013.6
20260906002706 23 49 4.8 12.9 0.00 2.18 2.18 94 1013.8
20260906002206 23 53 3.2 9.7 0.00 2.18 2.18 94 1013.7
20260906001700 23 37 4.8 8.0 0.00 2.18 2.18 94 1013.7
20260906001155 23 59 6.4 11.3 0.00 2.18 2.18 94 1013.4
20260906000648 23 53 6.4 11.3 0.00 2.18 2.18 93 1013.4
20260906000142 23 47 6.4 9.7 0.00 2.18 2.18 93 1013.5
20260905235857 23 60 6.4 9.7 0.00 2.18 2.18 93 1013.5
20260905235130 23 58 6.4 12.9 0.00 2.18 2.18 93 1013.5
20260905234630 23 55 8.0 12.9 0.00 2.18 2.18 93 1013.5
20260905234130 23 52 9.7 19.3 0.00 2.18 2.18 93 1013.4
20260905233631 24 49 12.9 20.9 0.00 2.18 2.18 92 1013.4
20260905233128 24 65 12.9 20.9 0.00 2.18 2.18 91 1013.3
20260905232628 24 58 16.1 22.5 0.00 2.18 2.18 91 1013.4
20260905232127 24 58 16.1 22.5 0.00 2.18 2.18 91 1013.5
20260905231627 25 49 14.5 20.9 0.00 2.18 2.18 91 1013.5
20260905231127 25 59 12.9 20.9 0.00 2.18 2.18 91 1013.6
20260905230626 25 44 12.9 19.3 0.00 2.18 2.18 91 1013.5
20260905230123 25 54 11.3 19.3 0.00 2.18 2.18 91 1013.5
20260905225625 25 63 11.3 19.3 0.00 2.18 2.18 91 1013.4
20260905225123 25 53 12.9 19.3 0.00 2.18 2.18 90 1013.4
20260905224621 26 49 12.9 22.5 0.00 2.18 2.18 90 1013.4
20260905224339 26 59 11.3 22.5 0.00 2.18 2.18 90 1013.4
20260905223619 26 56 11.3 17.7 0.00 2.18 2.18 90 1013.3
20260905223117 26 58 12.9 19.3 0.00 2.18 2.18 89 1013.0
20260905222843 26 32 11.3 19.3 0.00 2.18 2.18 88 1012.8
20260905222112 26 33 12.9 20.9 0.00 2.18 2.18 88 1012.9
20260905221606 26 48 12.9 20.9 0.00 2.18 2.18 88 1012.8
20260905221100 27 33 12.9 22.5 0.00 2.18 2.18 87 1012.7
20260905220554 27 32 12.9 22.5 0.00 2.18 2.18 87 1012.7
20260905220048 27 39 11.3 17.7 0.00 2.18 2.18 88 1012.7
20260905215542 27 34 11.3 17.7 0.00 2.18 2.18 88 1012.8
20260905215036 26 43 11.3 19.3 0.00 2.18 2.18 88 1012.8
20260905214530 27 11 6.4 19.3 0.00 2.18 2.18 87 1012.7
20260905214506 27 16 6.4 12.9 0.00 2.18 2.18 88 1012.7
20260905213740 27 30 9.7 17.7 0.00 2.18 2.18 87 1012.6
20260905213012 27 18 11.3 17.7 0.00 2.18 2.18 86 1012.5
20260905212506 27 33 12.9 19.3 0.00 2.18 2.18 87 1012.4
20260905212001 27 6 12.9 19.3 0.00 2.18 2.18 87 1012.5
20260905211454 27 41 12.9 17.7 0.00 2.18 2.18 87 1012.6
20260905210948 27 44 12.9 17.7 0.00 2.18 2.18 85 1012.7
20260905210442 27 45 11.3 19.3 0.00 2.18 2.18 85 1012.7
20260905205937 27 29 11.3 19.3 0.00 2.18 2.18 85 1012.7
20260905205430 28 35 11.3 19.3 0.00 2.18 2.18 82 1012.8
20260905205145 28 2 6.4 16.1 0.00 2.18 2.18 83 1012.9
20260905204418 28 36 4.8 9.7 0.00 2.18 2.18 83 1012.8
20260905203913 28 20 6.4 12.9 0.00 2.18 2.18 82 1012.9
20260905203406 28 54 8.0 12.9 0.00 2.18 2.18 82 1013.0
20260905202900 28 46 8.0 14.5 0.00 2.18 2.18 82 1013.0
20260905202354 28 347 4.8 14.5 0.00 2.18 2.18 82 1013.0
20260905201848 29 354 4.8 11.3 0.00 2.18 2.18 78 1013.0
20260905201608 29 331 6.4 12.9 0.00 2.18 2.18 78 1013.1
20260905200836 28 353 6.4 12.9 0.00 2.18 2.18 79 1013.1
20260905200331 28 32 6.4 11.3 0.00 2.18 2.18 80 1013.1
20260905195831 28 37 4.8 11.3 0.00 2.18 2.18 78 1013.1
20260905195332 28 302 4.8 11.3 0.00 2.18 2.18 80 1013.2
20260905194830 28 30 6.4 14.5 0.00 2.18 2.18 79 1013.3
20260905194330 28 358 6.4 14.5 0.00 2.18 2.18 81 1013.4
20260905193830 28 47 4.8 11.3 0.00 2.18 2.18 79 1013.5
20260905193327 28 338 3.2 6.4 0.00 2.18 2.18 80 1013.5
20260905192828 28 6 4.8 8.0 0.00 2.18 2.18 81 1013.7
20260905192329 28 288 4.8 11.3 0.00 2.21 2.18 79 1013.7
20260905191827 28 337 3.2 11.3 0.00 2.21 2.18 80 1013.7
20260905191326 28 41 3.2 9.7 0.00 2.21 2.18 79 1013.7
20260905190826 28 305 3.2 8.0 0.00 2.21 2.18 82 1013.8
20260905190804 27 298 4.8 9.7 0.00 2.21 2.18 81 1013.8
20260905190421 28 340 4.8 9.7 0.00 2.21 2.18 81 1013.8
20260905185551 27 306 6.4 11.3 0.00 2.67 2.18 81 1013.9
20260905184826 27 281 6.4 14.5 0.00 3.45 2.18 80 1014.0
20260905184324 27 294 6.4 14.5 0.00 3.56 2.18 80 1014.0
20260905183826 27 325 6.4 12.9 0.00 3.56 2.18 81 1014.0
20260905183541 27 307 6.4 12.9 0.00 3.56 2.18 82 1014.3
20260905183307 27 299 6.4 11.3 0.00 3.56 2.18 81 1014.1
20260905182308 27 271 6.4 12.9 0.00 3.56 2.18 81 1014.3
20260905181802 27 284 6.4 12.9 0.00 3.56 2.18 80 1014.3
20260905181257 27 281 4.8 11.3 0.00 3.56 2.18 81 1014.3
20260905181014 27 293 6.4 14.5 0.00 3.56 2.18 80 1014.4
20260905180244 27 300 8.0 14.5 0.00 3.56 2.18 80 1014.4
20260905175738 27 323 6.4 14.5 0.00 3.56 2.18 82 1014.4
20260905175232 27 303 4.8 12.9 0.00 3.56 2.18 82 1014.3
20260905174726 27 316 3.2 9.7 0.00 3.56 2.18 83 1014.3
20260905174220 27 324 3.2 9.7 0.00 3.56 2.18 82 1014.4
20260905173714 26 287 3.2 8.0 0.00 3.56 2.18 85 1014.4
20260905173208 26 242 3.2 8.0 0.00 3.56 2.18 85 1014.5
20260905172702 26 249 1.6 6.4 0.00 3.56 2.18 87 1014.5
20260905172156 25 222 1.6 6.4 0.00 3.56 2.18 87 1014.5
20260905171650 25 275 1.6 6.4 0.00 3.56 2.18 86 1014.6
20260905171144 25 155 0.0 3.2 0.00 3.56 2.18 89 1014.7
20260905170905 24 169 0.0 3.2 0.00 3.56 2.18 91 1014.7
20260905170131 23 155 0.0 3.2 0.00 3.56 2.18 92 1014.7
20260905165626 23 72 1.6 6.4 0.00 3.56 2.18 92 1014.7
20260905165120 23 297 1.6 6.4 0.00 3.56 2.18 92 1014.7
20260905164620 23 285 1.6 4.8 0.00 3.56 2.18 92 1014.6
20260905164120 22 251 3.2 8.0 0.00 3.56 2.18 94 1014.6
20260905163844 22 287 3.2 8.0 0.00 3.56 2.18 94 1014.7
20260905163120 22 297 1.6 8.0 0.00 3.56 2.18 94 1014.8
20260905162847 22 306 1.6 4.8 0.00 3.56 2.18 95 1014.8
20260905162115 22 308 1.6 4.8 0.00 3.56 2.18 95 1015.1
20260905161614 22 326 1.6 4.8 0.00 3.56 2.18 96 1015.1
20260905161115 22 328 3.2 9.7 0.00 3.56 2.18 96 1015.1
20260905160615 21 305 6.4 11.3 0.00 3.56 2.18 95 1014.9
20260905160116 21 300 6.4 11.3 0.00 3.56 2.18 95 1015.0
20260905155836 22 304 6.4 11.3 0.00 3.56 2.18 95 1015.0
20260905155111 22 298 4.8 11.3 0.00 3.56 2.18 95 1015.0
20260905154611 22 316 4.8 11.3 0.00 3.56 2.18 95 1015.0
20260905154111 22 323 4.8 11.3 0.00 3.56 2.18 95 1015.0
20260905153611 22 311 4.8 11.3 0.00 3.56 2.18 94 1014.9
20260905153112 22 18 4.8 9.7 0.00 3.56 2.18 94 1014.9
20260905152834 22 329 3.2 6.4 0.00 3.56 2.18 94 1014.8
20260905152111 22 346 1.6 8.0 0.00 3.56 2.18 94 1014.7
20260905151612 23 16 3.2 8.0 0.00 3.56 2.18 93 1014.7
20260905151112 23 347 1.6 4.8 0.00 3.56 2.18 93 1014.5
20260905150610 23 276 1.6 3.2 0.00 3.56 2.18 93 1014.4
20260905150110 23 48 1.6 6.4 0.00 3.56 2.18 92 1014.6
20260905145612 23 66 1.6 6.4 0.00 3.56 2.18 92 1014.4
20260905145600 23 271 3.2 6.4 0.00 3.56 2.18 92 1014.1
20260905145057 23 231 4.8 6.4 0.00 3.56 2.18 92 1014.0
20260905144330 23 251 4.8 9.7 0.00 3.56 2.18 92 1014.0
20260905143834 23 246 4.8 9.7 0.00 3.56 2.18 91 1014.0
20260905143332 23 210 4.8 9.7 0.00 3.56 2.18 92 1013.9
20260905142605 23 226 4.8 9.7 0.00 3.56 2.18 93 1014.0
20260905142318 23 236 4.8 11.3 0.00 3.56 2.18 93 1013.8
20260905141819 22 236 4.8 11.3 0.00 3.56 2.18 94 1013.8
20260905141313 22 250 4.8 11.3 0.00 3.56 2.18 96 1013.8
20260905140541 22 245 4.8 12.9 0.00 3.56 2.18 97 1013.9
20260905140036 22 284 3.2 12.9 0.00 3.56 2.18 100 1014.0
20260905135529 21 243 3.2 9.7 0.00 3.56 2.18 100 1013.8
20260905135030 21 231 3.2 9.7 0.00 3.56 2.18 100 1013.8
20260905134753 21 189 4.8 14.5 0.03 3.56 2.18 100 1013.8
20260905134513 21 217 4.8 14.5 0.25 3.56 2.18 100 1013.9
20260905133527 20 238 4.8 12.9 0.28 3.56 2.18 100 1013.8
20260905133026 20 219 4.8 14.5 0.28 3.56 2.18 100 1013.9
20260905132527 20 249 3.2 14.5 0.28 3.56 2.18 100 1013.9
20260905132025 20 212 1.6 6.4 0.28 3.56 2.18 100 1014.0
20260905131525 19 240 0.0 6.4 0.28 3.56 2.18 100 1014.1
20260905131026 19 257 1.6 3.2 0.28 3.56 2.18 100 1014.3
20260905130748 19 164 1.6 6.4 0.28 3.56 2.18 100 1014.5
20260905130022 19 163 1.6 6.4 0.28 3.56 2.18 100 1014.6
20260905125521 19 141 1.6 9.7 0.28 3.56 2.18 100 1014.8
20260905125022 19 233 4.8 9.7 0.28 3.56 2.18 100 1015.0
20260905124521 19 132 3.2 9.7 0.20 3.48 2.16 100 1015.0
20260905124017 19 96 1.6 8.0 0.03 3.30 1.96 100 1015.3
20260905123744 19 53 6.4 11.3 0.00 3.28 1.91 100 1015.7
20260905123017 19 77 9.7 11.3 0.00 3.28 1.91 100 1015.4
20260905122510 19 98 8.0 11.3 0.00 3.28 1.91 100 1015.0
20260905122010 18 89 6.4 11.3 0.00 3.28 1.91 100 1015.1
20260905121509 18 120 4.8 11.3 0.00 3.28 1.91 100 1015.1
20260905121008 18 88 4.8 8.0 0.03 3.28 1.91 100 1015.3
20260905120510 18 73 3.2 8.0 0.20 3.28 1.91 100 1015.4
20260905120229 18 83 3.2 11.3 0.41 3.28 1.91 100 1015.2
20260905115725 18 118 3.2 11.3 0.46 3.28 1.91 100 1015.2
20260905115006 18 131 3.2 6.4 0.71 3.28 1.91 100 1015.3
20260905114506 18 154 1.6 6.4 0.91 3.28 1.91 100 1015.5
20260905114002 18 141 1.6 8.0 1.07 3.28 1.91 100 1015.4
20260905113503 18 114 4.8 11.3 1.12 3.28 1.91 100 1015.4
20260905113004 18 98 8.0 12.9 1.17 3.28 1.91 100 1015.3
20260905112502 18 105 6.4 16.1 1.22 3.28 1.91 100 1015.2
20260905112002 18 155 9.7 24.1 1.40 3.28 1.91 100 1015.3
20260905111502 18 132 11.3 24.1 1.47 3.28 1.91 100 1015.1
20260905111002 18 101 6.4 20.9 1.57 3.23 1.88 100 1014.9
20260905110727 18 117 8.0 20.9 1.47 3.07 1.70 100 1015.3
20260905110436 18 84 14.5 22.5 1.24 2.82 1.45 99 1015.7
20260905110352 18 75 14.5 22.5 1.27 2.87 1.50 100 1016.2
20260905104951 18 64 8.0 17.7 0.99 2.57 1.27 99 1016.3
20260905104445 19 59 8.0 17.7 0.79 2.36 0.99 98 1016.7
20260905103939 19 37 11.3 20.9 0.64 2.21 0.84 97 1016.6
20260905103659 19 66 14.5 20.9 0.58 2.16 0.79 97 1015.9
20260905102927 19 60 16.1 24.1 0.53 2.11 0.74 98 1015.6
20260905102421 19 61 17.7 24.1 0.43 2.01 0.66 97 1015.7
20260905101915 19 58 17.7 25.7 0.28 1.85 0.51 97 1016.2
20260905101409 19 64 17.7 29.0 0.23 1.78 0.43 96 1015.8
20260905100903 19 57 16.1 29.0 0.18 1.63 0.28 95 1015.7
20260905100627 19 46 17.7 32.2 0.20 1.60 0.23 94 1016.0
20260905100124 20 50 14.5 32.2 0.23 1.60 0.23 94 1015.9
20260905095359 19 69 12.9 20.9 0.20 1.57 0.20 96 1015.9
20260905094900 19 58 14.5 19.3 0.20 1.57 0.20 96 1015.9
20260905094400 19 59 14.5 19.3 0.20 1.57 0.20 96 1015.8
20260905093900 19 58 12.9 20.9 0.20 1.57 0.20 96 1016.1
20260905093400 19 53 16.1 29.0 0.20 1.57 0.20 96 1016.2